Regional Weather Roundup
Issued by NWS

Home | Current Version | Previous Version | Text Only | Print | Product List | Glossary Off
Versions: 1 2 3 4 5 6 7 8 9 10 11 12 13 14 15 16 17 18 19 20 21 22 23 24 25 26 27 28 29 30 31 32 33 34 35 36 37 38 39 40 41 42 43 44 45 46 47 48 49 50

000
ASUS43 KIND 172159
RWRIN

WEATHER ROUNDUP FOR INDIANA
NATIONAL WEATHER SERVICE INDIANAPOLIS IN
600 PM EDT THU APR 17 2014

NOTE: "FAIR" INDICATES FEW OR NO CLOUDS BELOW 12,000 FEET WITH NO
SIGNIFICANT WEATHER AND/OR OBSTRUCTIONS TO VISIBILITY.

* - STATION DOES NOT REPORT WEATHER SUCH AS PRECIPITATION OR FOG.

+ - STATION NOT QUALITY CONTROLLED BY THE NATIONAL WEATHER SERVICE.
    USE DATA WITH CAUTION...ESPECIALLY DEWPOINT AND RELATIVE
    HUMIDITY OBSERVATIONS.

INZ001>003-010>013-019-020-172300-
NORTHWEST INDIANA

CITY           SKY/WX    TMP DP  RH WIND       PRES   REMARKS
GARY /AIRPORT/ CLOUDY    63  36  36 W14       30.20R
VALPARAISO     CLOUDY    63  36  36 SW14      30.20S

$$

LMZ046-743>745-172300-
SOUTHERN LAKE MICHIGAN

STATION/POSITION TIME  TEMP WIND        PRES
                       AIR  DIR/SP/G
                 (UTC) (F)  (DEG/KT/KT) (MB)
MICHIGAN CITY    2100   53  270/ 10/ 13   N/A

$$

INZ004-005-014>016-021>024-172300-
NORTH CENTRAL INDIANA

CITY           SKY/WX    TMP DP  RH WIND       PRES   REMARKS
ELKHART        SUNNY     64  32  29 SW12G20   30.20S
GOSHEN         PTSUNNY   64  35  34 SW15      30.21S
SOUTH BEND     CLOUDY    65  36  34 SW17G25   30.20F

$$

INZ006>009-017-018-025>027-172300-
NORTHEAST INDIANA

CITY           SKY/WX    TMP DP  RH WIND       PRES   REMARKS
ANGOLA *+      SUNNY     63  36  36 W10       30.21S
FORT WAYNE     PTSUNNY   64  29  26 SW15      30.24R

$$

INZ028-029-035-036-043>045-051>053-172300-
WEST CENTRAL INDIANA

CITY           SKY/WX    TMP DP  RH WIND       PRES   REMARKS
GREENCASTLE +  MOSUNNY   63  36  36 SW5       30.24S
LAFAYETTE      MOSUNNY   65  35  33 SW7       30.21F
TERRE HAUTE    MOSUNNY   65  35  33 SW10      30.24S

$$

INZ030>032-037>040-046>048-054>057-064-065-172300-
CENTRAL INDIANA

CITY           SKY/WX    TMP DP  RH WIND       PRES   REMARKS
INDIANAPOLIS   PTSUNNY   63  33  32 SW12      30.23F
-EAGLE CREEK   MOSUNNY   64  31  28 SW8       30.23F
KOKOMO *+      SUNNY     64  36  34 SW13G18   30.23S
MT COMFORT *+  PTSUNNY   66  32  28 SW8       30.24S
SHELBYVILLE    PTSUNNY   67  35  30 S12       30.23F

$$

INZ033-034-041-042-049-050-058-059-172300-
EAST CENTRAL INDIANA

CITY           SKY/WX    TMP DP  RH WIND       PRES   REMARKS
MUNCIE         PTSUNNY   66  30  26 SW10G16   30.24S

$$

INZ060-061-067>069-081>083-085>088-172300-
SOUTHWEST INDIANA

CITY           SKY/WX    TMP DP  RH WIND       PRES   REMARKS
EVANSVILLE     SUNNY     67  37  33 S6        30.25S
HUNTINGBURG *+ SUNNY     66  39  37 SW10      30.25F

$$

INZ062-063-066-070>080-084-089>092-172300-
SOUTH CENTRAL AND SOUTHEAST INDIANA

CITY           SKY/WX    TMP DP  RH WIND       PRES   REMARKS
BLOOMINGTON    MOSUNNY   66  34  30 SW8       30.24S

$$




USA.gov is the U.S. government's official web portal to all federal, state and local government web resources and services.